Kaltag, AK

11:49 PM AKDT on June 22, 2017 (GMT -0800)
Kaltag

Weather History for PAKV - July, 2013

Change the Weather History Date:

Saturday, July 20, 2013

  Actual Average (PAGA) Record (PAGA)
Temperature  
Mean Temperature 64 °F -  
Max Temperature 80 °F 68 °F 83 °F (1993)
Min Temperature 50 °F 52 °F 42 °F (2000)
Degree Days  
Heating Degree Days 2    
Growing Degree Days 14 (Base 50)    
Moisture  
Dew Point 48 °F    
Average Humidity 52    
Maximum Humidity 83    
Minimum Humidity 34    
Precipitation  
Precipitation 0.01 in - - ()
Sea Level Pressure  
Sea Level Pressure 30.23 in    
Wind  
Wind Speed 5 mph (SW)    
Max Wind Speed 14 mph    
Max Gust Speed 20 mph    
Visibility 10 miles    
Events Rain    
Averages and records for this station are not official NWS values.
T = Trace of Precipitation, MM = Missing Value Source: NWS Daily Summary

Daily Weather History Graph

Daily Weather History Graph

Search for Another Location

Airport or City:

Trip Planner

Search our weather history database for the weather conditions in past years. The results will help you decide how hot, cold, wet, or windy it might be!

Date:

Astronomy

Jul. 20, 2013 Rise Set
Actual Time 5:02 AM AKDT 12:17 AM AKDT
Civil Twilight 3:13 AM AKDT 2:08 AM AKDT
Nautical Twilight Sun does not set Sun does not set
Astronomical Twilight Sun does not set Sun does not set
Moon 10:16 PM AKDT (7/20) 3:02 AM AKDT (7/20)
Length of Visible Light 22h 55m
Length of Day
19h 15m
Waxing Gibbous, 94% of the Moon is Illuminated
Jul 20
Waxing Gibbous
Jul 22
Full
Jul 29
Last Quarter
Aug 6
New
Aug 14
First Quarter

Hourly Weather History & Observations

Time (AKDT) Temp. Dew Point Humidity Pressure Visibility Wind Dir Wind Speed Gust Speed Precip Events Conditions
12:53 AM 59.0 °F 48.9 °F 69% 30.23 in 10.0 mi SW 4.6 mph - 0.01 in Rain Light Rain
1:53 AM 57.9 °F 48.0 °F 70% 30.22 in 10.0 mi Calm Calm - 0.00 in   Overcast
2:53 AM 61.0 °F 48.0 °F 62% 30.23 in 10.0 mi SSW 5.8 mph - N/A   Overcast
3:53 AM 59.0 °F 48.0 °F 67% 30.22 in 10.0 mi SSW 3.5 mph - N/A   Overcast
4:53 AM 57.9 °F 46.9 °F 67% 30.22 in 10.0 mi SSW 3.5 mph - N/A   Overcast
5:53 AM 51.1 °F 46.0 °F 83% 30.23 in 10.0 mi Calm Calm - N/A   Mostly Cloudy
6:53 AM 50.0 °F 44.1 °F 80% 30.24 in 10.0 mi Calm Calm - N/A   Clear
7:53 AM 54.0 °F 48.0 °F 80% 30.24 in 10.0 mi Calm Calm - N/A   Clear
8:53 AM 69.1 °F 48.9 °F 49% 30.24 in 10.0 mi SW 5.8 mph - N/A   Clear
9:53 AM 72.0 °F 48.0 °F 43% 30.24 in 10.0 mi SW 4.6 mph - N/A   Clear
10:53 AM 73.0 °F 48.0 °F 41% 30.24 in 10.0 mi SW 6.9 mph - N/A   Overcast
11:53 AM 77.0 °F 48.9 °F 37% 30.24 in 10.0 mi WSW 10.4 mph - N/A   Overcast
12:53 PM 75.0 °F 48.9 °F 40% 30.24 in 10.0 mi SW 9.2 mph - N/A   Overcast
1:53 PM 77.0 °F 48.0 °F 36% 30.24 in 10.0 mi SW 13.8 mph 19.6 mph N/A   Overcast
2:53 PM 77.0 °F 48.0 °F 36% 30.24 in 10.0 mi SW 8.1 mph - N/A   Mostly Cloudy
3:53 PM 75.9 °F 48.0 °F 37% 30.24 in 10.0 mi SW 13.8 mph - N/A   Overcast
4:53 PM 75.0 °F 48.9 °F 40% 30.24 in 10.0 mi WSW 10.4 mph - N/A   Overcast
5:53 PM 77.0 °F 46.9 °F 34% 30.24 in 10.0 mi West 9.2 mph - N/A   Mostly Cloudy
6:53 PM 73.0 °F 48.9 °F 42% 30.23 in 10.0 mi SW 11.5 mph - N/A   Mostly Cloudy
7:53 PM 73.9 °F 48.9 °F 41% 30.23 in 10.0 mi SW 11.5 mph 17.3 mph N/A   Scattered Clouds
8:53 PM 70.0 °F 48.9 °F 47% 30.23 in 10.0 mi SW 8.1 mph - N/A   Overcast
9:53 PM - - N/A% 30.22 in 10.0 mi SSW 4.6 mph - N/A   Scattered Clouds
10:53 PM - - N/A% 30.21 in 10.0 mi SW 4.6 mph - N/A   Partly Cloudy
11:53 PM - - N/A% 30.22 in 10.0 mi SSW 3.5 mph - N/A   Clear